Location: Bazugues
(43.4465°N, 0.3432°E)
Time: 04:21:50
(UTC+00:00)

STARS - Visible Passes

Search period start: 14 May 2026 00:00
Search period end: 24 May 2026 00:00
Orbit: 576 x 586 km, 98.2° (Epoch: 13 May)

Date Brightness Start Highest point End Pass type
(mag) Time Alt. Az. Time Alt. Az. Time Alt. Az.
14 May ? 01:19:18 10° NE 01:22:21 20° E 01:23:08 19° ESE visible
14 May ? 02:53:56 10° N 02:57:45 36° WNW 02:59:29 25° WSW visible
15 May ? 01:24:17 10° NE 01:27:33 22° E 01:28:25 21° ESE visible
15 May ? 02:59:10 10° N 03:02:53 32° WNW 03:04:47 22° WSW visible
16 May ? 01:29:17 10° NE 01:32:44 25° E 01:33:42 23° ESE visible
16 May ? 03:04:25 10° N 03:08:01 29° WNW 03:10:03 19° WSW visible
17 May ? 01:34:19 10° NE 01:37:56 28° E 01:38:58 25° ESE visible
17 May ? 03:09:40 10° N 03:13:07 26° WNW 03:15:20 17° WSW visible
18 May ? 01:39:22 10° NNE 01:43:06 31° E 01:44:15 27° SE visible
18 May ? 03:14:56 10° NNW 03:18:14 23° WNW 03:20:36 14° WSW visible
19 May ? 01:44:26 10° NNE 01:48:17 35° E 01:49:31 29° SE visible
19 May ? 03:20:14 10° NNW 03:23:20 21° WNW 03:25:51 13° WSW visible
20 May ? 01:49:30 10° NNE 01:53:26 40° E 01:54:45 31° SE visible
20 May ? 03:25:32 10° NNW 03:28:26 19° WNW 03:31:07 11° WSW visible
21 May ? 01:54:35 10° NNE 01:58:36 46° E 02:00:00 32° SSE visible
21 May ? 03:30:52 10° NNW 03:33:31 17° WNW 03:36:09 10° WSW visible
22 May ? 01:59:40 10° NNE 02:03:44 52° E 02:05:15 33° SSE visible
22 May ? 03:36:14 10° NNW 03:38:36 15° WNW 03:40:57 10° W visible
23 May ? 02:04:46 10° NNE 02:08:53 60° ESE 02:10:30 34° SSE visible
23 May ? 03:41:39 10° NNW 03:43:40 13° WNW 03:45:42 10° W visible
